sat.trackr.live / text

‹ back to catalog

STARLINK-31305

NORAD 59232 · 2024-049B

PAYLOAD ACTIVE UNKNOWN

§ Identity

Operator
Country
US
Launch date
2024-03-16
Launch site
AFETR
Launch vehicle
Mass (kg)
RCS (m²)

Purposes: comms

External: N2YO · Heavens-Above · Gunter

§ Orbital elements

Epoch: 2026-09-20T07:31:52.145472Z

Period
94.27 min
Inclination
43.0013°
Eccentricity
0.0001263
Mean motion
15.27575455 rev/d
Perigee alt
482.2 km
Apogee alt
483.9 km
Semi-major
6,861.2 km
B*
2.9941e-5
RAAN
124.1828°
Arg perigee
272.2825°
Mean anomaly
87.7882°
Rev number
14,215

§ Raw data

STARLINK-313051 59232U 24049B   26263.31379798  .00000562  00000+0  29941-4 0  99972 59232  43.0013 124.1828 0001263 272.2825  87.7882 15.27575455142159

JSON: /api/v1/satellites/59232 · /tle

For live sub-satellite position, see the globe view (requires WebGL).

§ Visibility from observer

Set your observer location to see the next 7 days of passes ≥ 10°. The values pass through the URL so the page stays shareable.

No JS? Fill the form by hand. The geolocation button needs JavaScript.